Regional Weather Roundup
Issued by NWS New Orleans/Baton Rouge, LA

Home | Current Version | Previous Version | Graphics & Text | Print | Product List | Glossary On
Versions: 1 2 3 4 5 6 7 8 9 10 11 12 13 14 15 16 17 18 19 20 21 22 23 24 25 26 27 28 29 30 31 32 33 34 35 36 37 38 39 40 41 42 43 44 45 46 47 48 49 50
340
ASUS44 KLIX 251210
RWRLIX
NEW ORLEANS REGIONAL WEATHER ROUNDUP
NATIONAL WEATHER SERVICE NEW ORLEANS LA
700 AM CDT SAT OCT 25 2014

NOTE: "FAIR" INDICATES FEW OR NO CLOUDS BELOW 12,000 FEET WITH NO
      SIGNIFICANT WEATHER AND/OR OBSTRUCTIONS TO VISIBILITY.
      SKY/WX - SKY CONDITION AND SIGNIFICANT WEATHER.
      TMP - AIR TEMPERATURE.     DP    - DEWPOINT TEMPERATURE.
      RH  - RELATIVE HUMIDITY.   PRES  - PRESSURE.
      HI  - HEAT INDEX.          WCI   - WIND CHILL INDEX.

*  THESE STATIONS ARE NOT NWS OR FAA STATIONS AND ARE NOT UNDER
   NWS QUALITY CONTROL.

LAZ038-040-048-061>063-065>067-069-251300-
SOUTHEAST LOUISIANA

CITY           SKY/WX    TMP DP  RH WIND       PRES   REMARKS
N.O. AUDUBON     N/A     58  53  81 MISG        N/A
6HR MIN TEMP:  58; 6HR MAX TEMP:  64;

N.O. INTL ARPT CLEAR     59  50  72 NE5       30.13R
6HR MIN TEMP:  59; 6HR MAX TEMP:  64;

N.O. LAKEFRONT CLEAR     64  53  67 NE9       30.13R
6HR MIN TEMP:  64; 6HR MAX TEMP:  68;

N.O. DOWNTOWN*   N/A     63  48  59 CALM      30.13R
6HR MIN TEMP:  63; 6HR MAX TEMP:  66;

SLIDELL        CLEAR     45  42  89 CALM      30.11S
6HR MIN TEMP:  45; 6HR MAX TEMP:  51;

BATON ROUGE    CLEAR     48  45  89 CALM      30.13S
6HR MIN TEMP:  47; 6HR MAX TEMP:  52;

BOOTHVILLE     CLEAR     68  57  68 N7        30.11R
6HR MIN TEMP:  67; 6HR MAX TEMP:  70;

BELLE CHASSE   PTCLDY    50  47  89 CALM      30.12R
6HR MIN TEMP:  49; 6HR MAX TEMP:  52;

BOGALUSA*        N/A     44  41  89 CALM      30.14R
6HR MIN TEMP:  43; 6HR MAX TEMP:  49;

NEW ROADS*       N/A     46  45  97 CALM      30.14S
6HR MIN TEMP:  46; 6HR MAX TEMP:  50;

GONZALES*        N/A     48  48 100 CALM      30.13S
6HR MIN TEMP:  48; 6HR MAX TEMP:  53;

HAMMOND*       CLEAR     45  43  93 CALM      30.14S
HOUMA*         CLEAR     52  52 100 CALM      30.13R
PORT FOURCHON* SUNNY     64  57  77 N5        30.15R

$$

MSZ070-080>082-251300-
SOUTHERN MISSISSIPPI

CITY           SKY/WX    TMP DP  RH WIND       PRES   REMARKS
MCCOMB         CLEAR     48  44  86 NW3       30.13R
6HR MIN TEMP:  47; 6HR MAX TEMP:  57;

GULFPORT       CLEAR     49  46  90 CALM      30.11R
6HR MIN TEMP:  48; 6HR MAX TEMP:  54;

BILOXI         CLEAR     54  47  79 N6        30.11R
6HR MIN TEMP:  53; 6HR MAX TEMP:  60;

PASCAGOULA     CLEAR     43  42  97 CALM      30.12R FOG
6HR MIN TEMP:  40; 6HR MAX TEMP:  47;

STENNIS ARPT*  CLEAR     45  41  87 CALM      30.12

$$

COASTAL OBSERVATIONS
LAKE AND NEARSHORE STATIONS

STATION/POSITION TIME  TEMP    WIND        PRES    WAVE
                       AIR SEA DIR/SP/G            HT/PER
                 (UTC) (F)     (DEG/KT/KT) (MB)    (FT/S)
PASCAGOULA       1200   53     360/  7/  8 1018.9
WAVELAND YACHT   1200   58      10/  5/  7 1018.9
GRAND ISLE       1200   66 71   40/  9/ 14 1019.9
SOUTHWEST PASS   1200   70 80              1019.3
NEW CANAL        1200   66 69   50/  9/ 12 1020.3
SHELL BEACH      1200   65 66   30/  8/ 10 1019.5

OFFSHORE STATIONS

STATION/POSITION TIME  TEMP    WIND        PRES    WAVE
                       AIR SEA DIR/SP/G            HT/PER
                 (UTC) (F)     (DEG/KT/KT) (MB)    (FT/S)
64 S DAUPHIN ISL 1053   71 78   30/ 16/ 19 1018.8    3/ 5

$$




USA.gov is the U.S. government's official web portal to all federal, state and local government web resources and services.